Weather History for KTAN - July, 2013

Change the Weather History Date:

Monday, July 8, 2013

  Actual Average Record
Temperature  
Mean Temperature 80 °F -  
Max Temperature 91 °F 83 °F 97 °F (1981)
Min Temperature 69 °F 59 °F 45 °F (1972)
Cooling Degree Days 15    
Growing Degree Days 30 (Base 50)    
Moisture  
Dew Point 69 °F    
Average Humidity 81    
Maximum Humidity 97    
Minimum Humidity 45    
Precipitation  
Precipitation 0.00 in - - ()
Sea Level Pressure  
Sea Level Pressure 29.96 in    
Wind  
Wind Speed 4 mph (SSE)    
Max Wind Speed 10 mph    
Max Gust Speed 17 mph    
Visibility 7 miles    
Events      
Averages and records for this station are not official NWS values.
T = Trace of Precipitation, MM = Missing Value Source: NWS Daily Summary

Daily Weather History Graph

Daily Weather History Graph

Search for Another Location

Airport or City:

Trip Planner

Search our weather history database for the weather conditions in past years. The results will help you decide how hot, cold, wet, or windy it might be!

Date:

Astronomy

Jul. 08, 2013 Rise Set
Actual Time 5:17 AM EDT 8:21 PM EDT
Civil Twilight 4:43 AM EDT 8:54 PM EDT
Nautical Twilight 4:00 AM EDT 9:37 PM EDT
Astronomical Twilight 3:09 AM EDT 10:28 PM EDT
Moon 5:44 AM EDT (7/8) 8:19 PM EDT (7/8)
Length of Visible Light 16h 11m
Length of Day
15h 04m
New Moon, 0% of the Moon is Illuminated
Jul 8
New Moon
Jul 15
First Quarter
Jul 22
Full
Jul 29
Last Quarter
Aug 6
New

Hourly Weather History & Observations

Time (EDT) Temp. Heat Index Dew Point Humidity Pressure Visibility Wind Dir Wind Speed Gust Speed Precip Events Conditions
12:52 AM 73.0 °F - 71.1 °F 93% 29.92 in 6.0 mi SSE 4.6 mph - N/A   Clear
1:52 AM 73.0 °F - 71.1 °F 93% 29.94 in 6.0 mi South 3.5 mph - N/A   Clear
2:52 AM 73.0 °F - 71.1 °F 93% 29.93 in 6.0 mi Calm Calm - N/A   Clear
3:52 AM 70.0 °F - 69.1 °F 97% 29.92 in 2.5 mi Calm Calm - N/A   Clear
4:15 AM 70.0 °F - 68.0 °F 93% 29.92 in 3.0 mi Calm Calm - N/A   Clear
4:52 AM 70.0 °F - 69.1 °F 97% 29.92 in 5.0 mi Calm Calm - N/A   Clear
5:15 AM 69.1 °F - 68.0 °F 96% 29.93 in 1.5 mi Calm Calm - N/A   Clear
5:19 AM 69.1 °F - 68.0 °F 96% 29.93 in 0.8 mi Calm Calm - N/A   Clear
5:29 AM 69.1 °F - 68.0 °F 96% 29.93 in 1.5 mi Calm Calm - N/A   Clear
5:34 AM 69.1 °F - 68.0 °F 96% 29.93 in 3.0 mi Calm Calm - N/A   Clear
5:52 AM 71.1 °F - 69.1 °F 93% 29.93 in 5.0 mi Calm Calm - N/A   Clear
6:52 AM 77.0 °F - 72.0 °F 84% 29.93 in 10.0 mi South 5.8 mph - N/A   Clear
7:52 AM 80.1 °F 83.2 °F 70.0 °F 71% 29.94 in 10.0 mi SW 8.1 mph - N/A   Clear
8:52 AM 82.0 °F 84.5 °F 66.9 °F 60% 29.94 in 10.0 mi SW 6.9 mph 17.3 mph N/A   Clear
9:52 AM 84.9 °F 88.8 °F 69.1 °F 59% 29.94 in 10.0 mi WSW 9.2 mph - N/A   Clear
10:52 AM 86.0 °F 92.2 °F 72.0 °F 63% 29.95 in 10.0 mi West 10.4 mph - N/A   Partly Cloudy
11:52 AM 87.1 °F 93.6 °F 72.0 °F 61% 29.96 in 10.0 mi Variable 6.9 mph - N/A   Scattered Clouds
12:52 PM 90.0 °F 96.4 °F 71.1 °F 54% 29.95 in 10.0 mi Variable 5.8 mph - N/A   Clear
1:52 PM 91.0 °F 96.6 °F 70.0 °F 50% 29.94 in 10.0 mi West 6.9 mph - N/A   Scattered Clouds
2:52 PM 88.0 °F 92.1 °F 69.1 °F 53% 29.95 in 10.0 mi WNW 9.2 mph - N/A   Overcast
3:52 PM 91.0 °F 94.3 °F 66.9 °F 45% 29.94 in 10.0 mi SW 10.4 mph - N/A   Scattered Clouds
4:52 PM 82.9 °F 88.8 °F 73.0 °F 72% 29.95 in 9.0 mi ENE 6.9 mph - N/A   Mostly Cloudy
5:52 PM 81.0 °F 85.2 °F 72.0 °F 74% 29.95 in 9.0 mi Variable 6.9 mph - N/A   Mostly Cloudy
6:52 PM 78.1 °F - 71.1 °F 79% 29.96 in 7.0 mi East 5.8 mph - N/A   Partly Cloudy
7:52 PM 73.9 °F - 69.1 °F 85% 29.98 in 6.0 mi ENE 6.9 mph - N/A   Haze
8:19 PM 72.0 °F - 68.0 °F 87% 30.00 in 6.0 mi NE 3.5 mph - N/A   Partly Cloudy
8:33 PM 72.0 °F - 68.0 °F 87% 30.00 in 6.0 mi Variable 3.5 mph - N/A   Mostly Cloudy
8:52 PM 71.1 °F - 66.9 °F 87% 30.01 in 6.0 mi Variable 4.6 mph - N/A   Overcast
9:52 PM 70.0 °F - 66.9 °F 90% 30.03 in 6.0 mi ENE 4.6 mph - N/A   Overcast
10:39 PM 69.1 °F - 66.0 °F 90% 30.04 in 6.0 mi Calm Calm - N/A   Overcast
10:52 PM 69.1 °F - 66.0 °F 90% 30.04 in 6.0 mi ENE 4.6 mph - N/A   Overcast
11:16 PM 69.1 °F - 66.9 °F 93% 30.05 in 6.0 mi Calm Calm - N/A   Overcast
11:52 PM 69.1 °F - 66.0 °F 90% 30.04 in 5.0 mi ENE 3.5 mph - N/A   Overcast